When you browse on this site, cookies collect data to enhance your experience and personalize the content and advertising you see.
Visit our Privacy Policy to learn more. By continuing to use the site, you agree to this use of cookies and data.
  • In United Kingdom
  • List of Countries
  • For 7 days
  • Water Temperature
  • Satellite Maps
  • Weather Map
  • Weather Widgets
  • user-avatar
    Login

    Hourly Weather Mayenne

    Today, 22 May, Wednesday

    Time Temperature Precipitation Wind Pressure Humidity
    00:00 +9°C° 0 mm 2 mps 754 mmHg 88%
    01:00 +10°C° 0 mm 1 mps 754 mmHg 85%
    02:00 +9°C° 0 mm 1 mps 754 mmHg 83%
    03:00 +9°C° 0 mm 1 mps 754 mmHg 81%
    04:00 +10°C° 0 mm 1 mps 754 mmHg 81%
    05:00 +11°C° 0 mm 1 mps 754 mmHg 80%
    06:00 +12°C° 0 mm 1 mps 754 mmHg 77%
    07:00 +14°C° 0 mm 1 mps 754 mmHg 74%
    08:00 +15°C° 0 mm 1 mps 754 mmHg 72%
    09:00 +18°C° 0 mm 1 mps 754 mmHg 69%
    10:00 +19°C° 0 mm 1 mps 754 mmHg 65%
    11:00 +20°C° 0 mm 1 mps 754 mmHg 62%
    12:00 +21°C° 0 mm 1 mps 754 mmHg 58%
    13:00 +22°C° 0 mm 1 mps 754 mmHg 57%
    14:00 +22°C° 0 mm 1 mps 754 mmHg 56%
    15:00 +22°C° 0 mm 1 mps 754 mmHg 55%
    16:00 +22°C° 0 mm 1 mps 754 mmHg 60%
    17:00 +19°C° 0 mm 0 mps 753 mmHg 64%
    18:00 +19°C° 0 mm 0 mps 753 mmHg 69%
    19:00 +17°C° 0 mm 0 mps 754 mmHg 72%
    20:00 +16°C° 0 mm 1 mps 754 mmHg 76%
    21:00 +14°C° 0 mm 1 mps 754 mmHg 79%
    22:00 +13°C° 0 mm 1 mps 754 mmHg 82%
    23:00 +13°C° 0 mm 1 mps 754 mmHg 85%

    Tomorrow, 23 May, Thursday

    Time Temperature Precipitation Wind Pressure Humidity
    00:00 +12°C° 0 mm 1 mps 753 mmHg 88%
    01:00 +12°C° 0 mm 1 mps 753 mmHg 88%
    02:00 +12°C° 0 mm 1 mps 753 mmHg 87%
    03:00 +10°C° 0 mm 2 mps 753 mmHg 87%
    04:00 +12°C° 0 mm 2 mps 753 mmHg 86%
    05:00 +12°C° 0 mm 2 mps 753 mmHg 84%
    06:00 +13°C° 0 mm 2 mps 753 mmHg 83%
    07:00 +15°C° 0 mm 2 mps 753 mmHg 79%
    08:00 +16°C° 0 mm 2 mps 753 mmHg 75%
    09:00 +18°C° 0 mm 2 mps 753 mmHg 71%
    10:00 +19°C° 0.1 mm 2 mps 753 mmHg 69%
    11:00 +20°C° 0.1 mm 2 mps 753 mmHg 66%
    12:00 +21°C° 0.1 mm 3 mps 753 mmHg 64%
    13:00 +21°C° 0.4 mm 2 mps 752 mmHg 66%
    14:00 +21°C° 0.4 mm 2 mps 752 mmHg 67%
    15:00 +21°C° 0.4 mm 2 mps 752 mmHg 69%
    16:00 +20°C° 1.1 mm 2 mps 752 mmHg 75%
    17:00 +19°C° 1.1 mm 3 mps 752 mmHg 81%
    18:00 +17°C° 1.1 mm 3 mps 752 mmHg 88%
    19:00 +16°C° 0.5 mm 2 mps 752 mmHg 90%
    20:00 +15°C° 0.5 mm 2 mps 752 mmHg 92%
    21:00 +14°C° 0.5 mm 2 mps 752 mmHg 95%
    22:00 +14°C° 0.1 mm 2 mps 752 mmHg 95%
    23:00 +14°C° 0.1 mm 2 mps 752 mmHg 95%

    Day after tomorrow, 24 May, Friday

    Time Temperature Precipitation Wind Pressure Humidity
    00:00 +14°C° 0.1 mm 2 mps 752 mmHg 95%
    01:00 +13°C° 0 mm 2 mps 752 mmHg 95%
    02:00 +13°C° 0 mm 2 mps 752 mmHg 96%
    03:00 +12°C° 0 mm 2 mps 752 mmHg 96%
    04:00 +12°C° 0 mm 2 mps 752 mmHg 96%
    05:00 +13°C° 0 mm 2 mps 752 mmHg 96%
    06:00 +13°C° 0 mm 2 mps 752 mmHg 96%
    07:00 +14°C° 0 mm 3 mps 752 mmHg 88%
    08:00 +16°C° 0 mm 3 mps 752 mmHg 79%
    09:00 +17°C° 0 mm 3 mps 753 mmHg 71%
    10:00 +18°C° 0 mm 3 mps 752 mmHg 66%
    11:00 +19°C° 0 mm 3 mps 752 mmHg 62%
    12:00 +20°C° 0 mm 4 mps 752 mmHg 57%
    13:00 +20°C° 0 mm 4 mps 752 mmHg 59%
    14:00 +20°C° 0 mm 4 mps 752 mmHg 61%
    15:00 +20°C° 0 mm 4 mps 752 mmHg 63%
    16:00 +19°C° 0 mm 4 mps 751 mmHg 68%
    17:00 +19°C° 0 mm 3 mps 751 mmHg 73%
    18:00 +18°C° 0 mm 3 mps 751 mmHg 78%
    19:00 +16°C° 0 mm 3 mps 752 mmHg 82%
    20:00 +13°C° 0 mm 3 mps 752 mmHg 87%
    21:00 +12°C° 0 mm 2 mps 753 mmHg 91%
    22:00 +10°C° 0 mm 2 mps 753 mmHg 92%
    23:00 +9°C° 0 mm 2 mps 753 mmHg 93%

    25 May, Saturday

    Time Temperature Precipitation Wind Pressure Humidity
    00:00 +9°C° 0 mm 2 mps 753 mmHg 95%
    01:00 +9°C° 0 mm 2 mps 753 mmHg 95%
    02:00 +9°C° 0 mm 2 mps 753 mmHg 95%
    03:00 +9°C° 0 mm 2 mps 753 mmHg 95%
    04:00 +9°C° 0 mm 2 mps 753 mmHg 94%
    05:00 +10°C° 0 mm 2 mps 753 mmHg 93%
    06:00 +12°C° 0 mm 2 mps 753 mmHg 92%
    07:00 +14°C° 0.2 mm 2 mps 753 mmHg 88%
    08:00 +16°C° 0.2 mm 3 mps 753 mmHg 83%
    09:00 +18°C° 0.2 mm 3 mps 753 mmHg 78%
    10:00 +18°C° 1 mm 3 mps 753 mmHg 79%
    11:00 +19°C° 1 mm 4 mps 753 mmHg 80%
    12:00 +19°C° 1 mm 4 mps 753 mmHg 81%
    13:00 +19°C° 0.7 mm 4 mps 753 mmHg 78%
    14:00 +19°C° 0.7 mm 5 mps 753 mmHg 74%
    15:00 +20°C° 0.7 mm 5 mps 753 mmHg 71%
    16:00 +19°C° 0 mm 4 mps 753 mmHg 72%
    17:00 +18°C° 0 mm 4 mps 753 mmHg 73%
    18:00 +17°C° 0 mm 3 mps 753 mmHg 75%
    19:00 +14°C° 0 mm 3 mps 754 mmHg 80%
    20:00 +13°C° 0 mm 2 mps 754 mmHg 85%
    21:00 +10°C° 0 mm 2 mps 754 mmHg 90%
    22:00 +10°C° 0 mm 2 mps 754 mmHg 91%
    23:00 +9°C° 0 mm 2 mps 754 mmHg 93%

    26 May, Sunday

    Time Temperature Precipitation Wind Pressure Humidity
    00:00 +9°C° 0 mm 2 mps 754 mmHg 95%
    01:00 +9°C° 0 mm 2 mps 754 mmHg 95%
    02:00 +9°C° 0 mm 2 mps 754 mmHg 96%
    03:00 +10°C° 0 mm 1 mps 754 mmHg 96%
    04:00 +10°C° 0 mm 1 mps 754 mmHg 95%
    05:00 +11°C° 0 mm 1 mps 754 mmHg 94%
    06:00 +12°C° 0 mm 1 mps 754 mmHg 93%
    07:00 +14°C° 0 mm 2 mps 754 mmHg 87%
    08:00 +16°C° 0 mm 2 mps 754 mmHg 81%
    09:00 +18°C° 0 mm 3 mps 754 mmHg 75%
    10:00 +19°C° 0 mm 3 mps 754 mmHg 71%
    11:00 +19°C° 0 mm 3 mps 754 mmHg 66%
    12:00 +20°C° 0 mm 3 mps 754 mmHg 62%
    13:00 +20°C° 0 mm 3 mps 753 mmHg 62%
    14:00 +20°C° 0 mm 3 mps 753 mmHg 62%
    15:00 +20°C° 0 mm 4 mps 753 mmHg 62%
    16:00 +20°C° 0 mm 3 mps 753 mmHg 66%
    17:00 +19°C° 0 mm 3 mps 752 mmHg 70%
    18:00 +18°C° 0 mm 3 mps 752 mmHg 75%
    19:00 +16°C° 0 mm 3 mps 752 mmHg 79%
    20:00 +13°C° 0 mm 3 mps 752 mmHg 84%
    21:00 +12°C° 0 mm 2 mps 752 mmHg 89%
    22:00 +12°C° 0 mm 2 mps 752 mmHg 92%
    23:00 +12°C° 0 mm 2 mps 751 mmHg 95%

    27 May, Monday

    Time Temperature Precipitation Wind Pressure Humidity
    00:00 +12°C° 0 mm 2 mps 751 mmHg 98%
    01:00 +12°C° 0 mm 2 mps 751 mmHg 98%
    02:00 +12°C° 0 mm 2 mps 750 mmHg 98%
    03:00 +13°C° 0 mm 2 mps 750 mmHg 97%
    04:00 +12°C° 0.2 mm 3 mps 750 mmHg 97%
    05:00 +12°C° 0.2 mm 4 mps 750 mmHg 96%
    06:00 +13°C° 0.2 mm 4 mps 750 mmHg 95%
    07:00 +13°C° 0 mm 5 mps 750 mmHg 91%
    08:00 +13°C° 0 mm 5 mps 751 mmHg 86%
    09:00 +13°C° 0 mm 5 mps 751 mmHg 81%
    10:00 +14°C° 0 mm 5 mps 751 mmHg 76%
    11:00 +15°C° 0 mm 5 mps 751 mmHg 71%
    12:00 +16°C° 0 mm 5 mps 751 mmHg 66%
    13:00 +15°C° 0 mm 5 mps 751 mmHg 67%
    14:00 +15°C° 0 mm 5 mps 751 mmHg 68%
    15:00 +14°C° 0 mm 5 mps 750 mmHg 69%
    16:00 +14°C° 0 mm 5 mps 750 mmHg 72%
    17:00 +13°C° 0 mm 5 mps 750 mmHg 75%
    18:00 +13°C° 0 mm 5 mps 750 mmHg 77%
    19:00 +12°C° 0 mm 5 mps 750 mmHg 79%
    20:00 +11°C° 0 mm 4 mps 751 mmHg 80%
    21:00 +10°C° 0 mm 3 mps 751 mmHg 82%
    22:00 +10°C° 0 mm 3 mps 751 mmHg 85%
    23:00 +10°C° 0 mm 3 mps 751 mmHg 88%
    Show more